Vorticity
14 8 12 5 6 8 2 9 12 13 10 12 15 8 6 35 31 11 -1 11 20 11 13 25 20 25 16 15 31 17 21 6 20 2 -1 11 13 13 10 9 9 9 3
27 23 18 13 11 13 10 3 3 1 5 8 6 2 14 21 4 46 44 28 17 10 20 17 19 22 15 21 18 23 33 9 17 24 15 19 3 18 13 6 7 14 -36
5 11 12 5 11 9 2 3 -1 -2 7 19 8 7 2 -0 15 15 19 35 27 7 16 19 23 25 25 23 28 36 21 6 3 6 -1 -0 9 5 -26 1 2 4 5
4 11 9 11 14 10 3 2 1 3 14 17 15 13 8 4 -0 19 9 20 35 18 30 5 22 13 14 20 29 27 6 6 -1 6 11 7 -7 -1 32 23 5 2 28
10 4 8 10 8 11 15 14 13 11 10 3 14 12 12 -0 5 2 19 30 15 29 25 11 15 28 36 23 37 12 12 14 21 16 15 14 34 11 16 32 32 15 9
3 5 13 17 4 7 9 6 6 14 6 -3 2 12 8 4 1 17 -3 2 23 16 29 25 15 21 20 25 24 20 16 13 19 28 16 17 24 12 18 -1 19 10 6
0 2 7 3 2 -4 5 5 3 5 6 1 6 6 14 14 10 5 11 17 16 13 11 10 11 11 11 18 15 16 17 17 15 13 5 10 18 17 22 13 7 16 16
5 3 -3 5 14 8 7 7 6 7 4 7 6 2 7 8 18 8 9 4 31 2 12 9 11 14 15 15 17 19 18 12 10 18 18 17 14 11 13 16 19 8 2
35 16 26 9 8 13 13 14 8 11 10 10 9 4 9 12 1 12 18 -6 42 11 8 6 7 10 11 12 7 10 13 16 18 20 15 9 8 10 13 13 4 3 6
7 9 11 9 9 13 13 18 24 24 18 8 4 5 8 5 9 2 17 35 10 22 24 0 10 9 9 7 14 13 12 10 10 13 11 10 11 8 4 3 6 11 12
8 -1 12 5 6 10 18 3 3 23 19 20 19 9 7 9 11 5 16 17 20 25 19 4 2 16 7 7 7 10 13 14 13 10 10 10 6 5 7 10 12 11 11
22 13 7 2 7 3 -5 0 -0 3 12 27 13 9 7 10 16 13 10 -2 13 10 22 12 6 16 10 5 8 9 11 13 13 13 8 6 7 9 11 11 11 13 11
12 23 19 18 11 6 9 16 16 19 6 11 16 15 9 10 15 17 13 8 6 9 8 17 5 6 3 10 7 11 11 12 12 8 7 8 9 11 12 13 12 8 7
18 22 18 20 25 29 24 28 21 25 11 11 9 11 9 15 13 17 14 -8 7 31 12 4 7 3 5 9 9 8 12 12 9 9 10 11 13 13 11 9 8 7 7
25 13 16 16 16 10 9 10 42 20 7 12 11 14 12 15 21 17 31 3 -12 5 8 39 8 5 2 9 9 9 12 12 11 12 13 14 12 8 8 7 9 10 10
12 20 5 2 6 10 15 8 13 12 13 17 16 18 17 19 10 26 5 15 12 6 20 -4 0 19 14 17 11 13 13 11 12 14 11 8 8 8 10 10 10 9 8
7 2 2 5 8 16 14 14 17 12 13 12 9 12 25 25 28 17 14 7 12 11 26 3 15 11 17 11 11 12 13 14 10 8 8 9 11 11 10 9 8 8 7
6 4 3 5 9 14 18 10 21 30 36 32 29 23 21 15 13 18 13 1 8 12 16 13 16 13 10 13 14 14 12 8 8 8 10 10 9 8 8 7 6 6 5
7 8 7 3 7 16 11 28 26 25 25 25 21 25 25 20 16 19 21 13 18 20 17 13 11 14 15 14 13 10 8 8 11 11 9 8 8 7 6 5 5 6 6
6 9 4 4 4 14 18 25 20 17 17 17 14 19 28 30 26 24 25 19 19 18 15 14 12 12 12 10 8 8 11 11 9 8 7 6 6 6 5 4 5 7 7
2 6 5 8 2 11 16 21 16 16 16 12 12 16 23 34 37 29 18 13 14 14 14 16 14 10 9 9 12 11 9 8 6 5 5 6 5 5 6 8 8 7 7
12 8 7 7 4 8 13 21 14 14 11 12 18 19 18 14 12 12 12 10 12 13 10 8 8 8 12 12 8 7 5 5 5 6 6 7 8 7 7 6 6 7 7
17 14 14 16 24 14 12 18 14 15 12 10 9 9 10 11 12 12 12 10 8 7 8 9 13 12 8 6 5 5 5 5 6 6 7 6 6 6 6 6 7 8 8
10 9 11 15 20 18 11 17 12 15 11 9 9 8 7 9 10 9 8 8 8 9 11 12 9 6 4 4 4 4 5 6 6 5 5 6 5 6 5 7 7 7 8
20 21 16 12 13 13 10 14 14 15 8 7 8 9 8 8 7 7 8 9 10 12 12 8 5 4 4 4 5 6 6 5 5 5 5 5 5 5 8 8 8 8 8
13 16 20 15 7 9 10 16 14 15 8 7 8 8 8 8 8 9 10 11 12 11 8 6 4 4 4 5 6 6 6 6 6 6 6 6 5 8 8 8 8 9 9
Height
3025 3024 3022 3020 3018 3014 3012 3008 3006 3002 2998 2995 2990 2985 2980 2976 2974 2971 2969 2968 2966 2966 2966 2967 2969 2972 2972 2978 2983 2988 2988 2995 3003 3009 3019 3026 3032 3036 3040 3043 3046 3047 3048
3014 3013 3011 3010 3007 3005 3003 3000 2997 2994 2991 2986 2982 2978 2973 2969 2965 2961 2958 2954 2953 2952 2951 2951 2952 2953 2957 2962 2968 2972 2977 2981 2991 2995 3002 3009 3016 3024 3027 3032 3035 3037 3039
3005 3004 3003 3001 2999 2996 2994 2992 2989 2985 2983 2979 2974 2972 2967 2961 2957 2952 2947 2943 2940 2937 2938 2938 2939 2941 2944 2946 2953 2960 2965 2970 2979 2985 2992 2999 3007 3014 3018 3020 3023 3027 3027
2997 2995 2993 2990 2988 2987 2985 2983 2980 2977 2974 2971 2967 2964 2961 2957 2951 2945 2940 2934 2931 2928 2926 2928 2929 2931 2933 2936 2943 2949 2957 2965 2973 2980 2987 2994 3001 3004 3006 3009 3013 3017 3019
2989 2986 2985 2982 2980 2978 2976 2974 2972 2969 2966 2963 2960 2957 2954 2950 2946 2941 2936 2929 2925 2922 2920 2921 2924 2926 2927 2931 2937 2945 2953 2959 2967 2972 2979 2985 2989 2991 2995 2999 3003 3006 3010
2978 2976 2974 2973 2971 2970 2968 2966 2964 2961 2959 2956 2954 2951 2947 2945 2941 2937 2933 2928 2924 2920 2919 2918 2921 2921 2922 2928 2933 2940 2945 2950 2958 2963 2969 2974 2978 2982 2986 2990 2993 2996 3001
2969 2967 2965 2962 2960 2960 2958 2957 2955 2954 2952 2950 2947 2944 2941 2938 2936 2932 2929 2924 2922 2920 2919 2918 2918 2919 2920 2924 2926 2932 2936 2942 2947 2955 2962 2967 2970 2975 2979 2983 2985 2990 2994
2957 2955 2953 2952 2949 2948 2947 2946 2945 2944 2944 2943 2940 2938 2935 2932 2929 2926 2924 2921 2919 2919 2919 2918 2919 2920 2921 2922 2924 2928 2933 2937 2939 2947 2954 2959 2965 2968 2973 2979 2980 2983 2985
2943 2941 2940 2939 2937 2936 2935 2934 2934 2933 2933 2933 2932 2930 2928 2927 2924 2920 2918 2917 2915 2915 2915 2916 2917 2920 2921 2924 2925 2928 2929 2932 2936 2941 2948 2953 2959 2963 2968 2972 2974 2976 2979
2933 2930 2928 2927 2925 2924 2923 2922 2921 2920 2921 2922 2922 2921 2920 2920 2919 2915 2914 2911 2912 2912 2912 2914 2915 2918 2921 2923 2926 2928 2929 2931 2934 2940 2945 2950 2955 2959 2963 2967 2967 2968 2971
2920 2918 2918 2917 2916 2915 2913 2912 2911 2909 2909 2910 2911 2912 2912 2912 2912 2911 2909 2909 2909 2907 2907 2910 2914 2915 2918 2921 2923 2925 2927 2929 2932 2938 2942 2947 2951 2954 2956 2959 2959 2962 2964
2906 2905 2906 2906 2906 2905 2904 2903 2901 2900 2899 2899 2901 2902 2903 2904 2904 2905 2904 2904 2905 2905 2905 2907 2910 2913 2917 2919 2922 2923 2924 2926 2930 2934 2938 2942 2944 2946 2949 2951 2954 2956 2958
2893 2893 2894 2894 2893 2893 2891 2890 2889 2888 2889 2890 2890 2892 2894 2895 2896 2897 2898 2898 2900 2901 2902 2905 2908 2911 2914 2917 2919 2921 2922 2924 2927 2931 2933 2936 2939 2941 2944 2946 2949 2951 2952
2884 2884 2885 2883 2882 2880 2878 2875 2874 2876 2878 2880 2880 2881 2883 2885 2887 2888 2890 2890 2892 2894 2897 2899 2903 2907 2910 2914 2916 2917 2919 2921 2924 2926 2930 2932 2934 2936 2939 2942 2944 2945 2946
2877 2879 2878 2876 2875 2874 2871 2867 2864 2866 2868 2869 2871 2871 2873 2875 2878 2880 2881 2885 2887 2891 2893 2895 2898 2901 2905 2908 2910 2913 2915 2917 2920 2923 2926 2928 2930 2933 2936 2938 2939 2940 2940
2874 2874 2873 2872 2870 2867 2864 2862 2860 2859 2859 2859 2860 2861 2863 2865 2868 2871 2874 2877 2878 2884 2887 2889 2893 2897 2900 2903 2906 2909 2911 2914 2917 2919 2921 2924 2927 2929 2931 2931 2931 2934 2934
2872 2872 2871 2868 2865 2861 2858 2855 2852 2851 2849 2849 2850 2851 2852 2855 2859 2863 2867 2870 2874 2878 2880 2885 2889 2891 2895 2898 2901 2904 2907 2910 2913 2915 2917 2919 2922 2924 2925 2927 2928 2928 2927
2871 2870 2867 2865 2861 2856 2852 2848 2843 2839 2838 2838 2840 2842 2844 2847 2851 2856 2860 2863 2866 2870 2876 2881 2885 2888 2891 2895 2898 2902 2905 2907 2909 2912 2914 2916 2918 2920 2921 2922 2921 2921 2920
2869 2867 2864 2860 2857 2852 2847 2842 2838 2835 2834 2834 2834 2836 2837 2840 2844 2849 2852 2857 2863 2867 2871 2876 2880 2885 2888 2892 2896 2900 2903 2905 2906 2908 2911 2914 2915 2916 2917 2916 2916 2914 2914
2865 2863 2860 2856 2853 2849 2844 2840 2836 2834 2833 2833 2833 2833 2833 2835 2838 2842 2847 2852 2858 2864 2869 2873 2877 2882 2886 2890 2894 2898 2900 2902 2903 2904 2908 2909 2911 2913 2913 2910 2909 2908 2905
2861 2858 2856 2853 2850 2847 2844 2840 2837 2836 2834 2834 2834 2835 2835 2836 2839 2843 2848 2853 2858 2863 2868 2872 2877 2881 2885 2889 2892 2894 2896 2898 2899 2901 2903 2905 2907 2908 2908 2904 2901 2898 2892
2854 2853 2851 2849 2847 2844 2843 2840 2839 2837 2836 2836 2837 2838 2839 2841 2844 2847 2851 2855 2859 2863 2868 2872 2876 2880 2883 2886 2889 2891 2894 2895 2897 2900 2901 2902 2902 2900 2896 2891 2888 2885 2881
2848 2846 2845 2843 2842 2841 2841 2840 2839 2838 2838 2838 2838 2840 2841 2844 2846 2850 2854 2857 2861 2865 2869 2872 2876 2879 2882 2885 2888 2890 2892 2893 2894 2894 2893 2892 2891 2889 2886 2883 2879 2875 2871
2841 2840 2838 2838 2836 2836 2837 2837 2838 2838 2839 2839 2840 2841 2843 2846 2848 2851 2855 2858 2861 2864 2867 2870 2874 2877 2879 2882 2884 2885 2886 2887 2887 2887 2886 2885 2883 2880 2876 2873 2870 2865 2861
2834 2832 2832 2832 2832 2832 2833 2834 2835 2836 2838 2839 2840 2842 2844 2846 2849 2851 2854 2856 2859 2862 2865 2868 2871 2873 2875 2877 2879 2881 2881 2882 2881 2880 2879 2877 2874 2871 2869 2864 2859 2853 2848
2829 2827 2825 2826 2827 2827 2828 2829 2831 2833 2835 2837 2839 2841 2843 2845 2848 2850 2852 2854 2857 2860 2863 2866 2868 2870 2872 2874 2875 2875 2876 2875 2874 2873 2871 2869 2866 2862 2858 2853 2847 2842 2835